User: anonymous   Login
Location: Amon Carter Post Office
(32.8281°N, 97.0484°W)
Time: 17:44:06
(UTC+00:00)
Language:

SL-27 R/B - Orbit

View from above orbital plane
View from above orbital plane
View from above satellite
View from above satellite

Ground track
Ground track

The orbit data is extracted from the following two-line orbital elements,

1 40354U 14084B   22145.34711990  .00007334  00000-0  16011-3 0  9990
2 40354  74.7390   3.2918 0035537 195.5771 164.4353 15.43637385417439
Epoch (UTC): 25 May 2022 08:19:51
Eccentricity: 0.0035537
inclination: 74.7390°
perigee height: 411 km
apogee height: 459 km
right ascension of ascending node: 3.2918°
argument of perigee: 195.5771°
revolutions per day: 15.43637385
mean anomaly at epoch: 164.4353°
orbit number at epoch: 41743

The dashed part of the orbit path shows where the satellite is in the earth's shadow,  

DLR